Regional Weather Roundup
Issued by NWS San Diego, CA

Home | Current Version | Previous Version | Text Only | Print | Product List | Glossary On
Versions: 1 2 3 4 5 6 7 8 9 10 11 12 13 14 15 16 17 18 19 20 21 22 23 24 25 26 27 28 29 30 31 32 33 34 35 36 37 38 39 40 41 42 43 44 45 46 47 48 49 50
000
ASUS46 KSGX 231104
RWRSGX

SAN DIEGO HOURLY WEATHER ROUNDUP
NATIONAL WEATHER SERVICE SAN DIEGO CA
400 AM PDT SAT SEP 23 2017

NOTE: "FAIR" INDICATES FEW OR NO CLOUDS BELOW 12,000 FEET WITH NO
SIGNIFICANT WEATHER AND/OR OBSTRUCTIONS TO VISIBILITY.

CAZ042-043-060-061-PZZ750-775-231200-

GREATER SAN DIEGO AREA

CITY           SKY/WX    TMP DP  RH WIND       PRES   REMARKS
SAN DIEGO AP   PTCLDY    64  54  69 E3        29.84S
NATIONAL CITY    N/A     60  55  82 CALM      29.85S
CHULA VISTA      N/A     57  54  89 CALM      29.75S
IMPERIAL BEACH PTCLDY    55  51  86 SE3       29.83S
BROWN FIELD    MOCLDY    58  54  86 E5        29.83S
MIRAMAR MCAS   MOCLDY    61  55  81 E6        29.82F
MONTGOMERY FLD PTCLDY    63  53  70 CALM      29.83S
GILLESPIE FLD  FAIR      55  52  88 CALM      29.84S

$$

NORTH SAN DIEGO COUNTY

CITY           SKY/WX    TMP DP  RH WIND       PRES   REMARKS
CAMP PENDLETON CLEAR     50  48  93 CALM      29.82F
OCEANSIDE AP   CLEAR     51  50  96 CALM      29.82S
OCEANSIDE HBR    N/A     56  52  88 E5        29.84S
VISTA            N/A     56  52  84 CALM      29.80S
CARLSBAD       PTCLDY    59  55  87 E3        29.81F
DEL MAR          N/A     59  55  86 CALM      29.84S
LA JOLLA SCRIP   N/A     61  57  85 NE2       29.81F
FALLBROOK        N/A     56  56 100 CALM      29.82F
ESCONDIDO        N/A     58  54  86 CALM      29.84S
SAN MARCOS       N/A     58  53  85 CALM      29.84F
POWAY            N/A     54  51  87 CALM      29.84S

$$

EAST SAN DIEGO COUNTY

CITY           SKY/WX    TMP DP  RH WIND       PRES   REMARKS
RAMONA         CLEAR     48  46  93 E3        29.84S
LA MESA          N/A     57  54  87 CALM      29.76S
JAMUL            N/A     51  49  92 CALM      29.83S
DESCANSO N       N/A     40  37  90 NE3       29.77F
CAMPO            N/A     39  37  92 NE3       29.81F

$$

ORANGE COUNTY AND THE LOS ANGELES BASIN

CITY           SKY/WX    TMP DP  RH WIND       PRES   REMARKS
JOHN WAYNE AP  CLEAR     59  53  80 CALM      29.81S
LAGUNA BEACH     N/A     52  50  92 CALM      29.76S
LAKE FOREST FR   N/A     55  49  80 CALM      29.71S
HUNTINGTON BCH   N/A     54  53  95 CALM      29.82S
LOS ALAMITOS   FAIR      57  52  85 E3        29.81S
FULLERTON      CLEAR     59  51  75 E5        29.81S
LONG BEACH     CLEAR     60  54  80 CALM      29.81S
L.A. AP        PTCLDY    59  55  87 E3        29.82R
L.A. DOWNTOWN  CLEAR     62  53  72 CALM      29.81S

$$

THE INLAND EMPIRE

CITY           SKY/WX    TMP DP  RH WIND       PRES   REMARKS
CORONA         CLEAR     47  45  93 CALM      29.83S
CHINO          CLEAR     54  48  80 CALM      29.83S
ONTARIO        CLEAR     56  48  74 CALM      29.81F
SAN BERNARDINO FAIR      58  46  65 SE3       29.83S
RIVERSIDE AP   CLEAR     56  52  86 CALM      29.82S
MORENO VALLEY    N/A     52  50  92 CALM      27.95S
MARCH ARB      CLEAR     49  45  88 CALM      29.82S
HORSETHIEF CYN   N/A     53  45  75 CALM      29.83S
PERRIS           N/A     55  54  95 S3          N/A
HEMET EAST       N/A     54  47  77 CALM      29.87S
FRENCH VALLEY  FAIR      54  50  87 CALM      29.84S
TEMECULA         N/A     56  55  93 S2        29.88S

$$

SAN BERNARDINO AND RIVERSIDE COUNTY MOUNTAINS

CITY           SKY/WX    TMP DP  RH WIND       PRES   REMARKS
BIG BEAR AP    CLEAR     28  23  80 CALM      29.91S
ANGELUS OAKS     N/A     37  28  71 CALM      29.77F
PINE COVE        N/A     38  37  96 N2        29.79F

$$

SOUTHERN DESERT INCLUDING THE COACHELLA VALLEY

CITY           SKY/WX    TMP DP  RH WIND       PRES   REMARKS
PALM SPRINGS   CLEAR     64  47  53 VRB3      29.73S
THOUSAND PALMS   N/A     67  50  54 NW17      29.69S
PALM DESERT      N/A     62  50  64 CALM      28.09S
THERMAL        CLEAR     68  50  52 NW13      29.69R
BLYTHE         CLEAR     60  25  26 CALM      29.69S
IMPERIAL AP    CLEAR     65  47  52 W14       29.70S
EL CENTRO NAS  CLEAR     66  44  45 W17       29.72S

$$

UPPER DESERT

CITY           SKY/WX    TMP DP  RH WIND       PRES   REMARKS
VICTORVILLE AP CLEAR     48  36  61 CALM      29.85R
HESPERIA         N/A     47  44  87 CALM      29.93S
PALMDALE       CLEAR     49  32  52 S5        29.85S
LANCASTER      CLEAR     52  34  50 W5        29.85R
EDWARDS AFB    CLEAR     48  30  50 S3        29.82R
DAGGETT        CLEAR     53  35  50 W12       29.82R
29 PALMS N     CLEAR     60  38  43 NW9       29.85S
NEEDLES        CLEAR     63  22  20 CALM      29.70R

$$

REGIONAL REPORTS

CITY           SKY/WX    TMP DP  RH WIND       PRES   REMARKS
SANTA BARBARA  CLEAR     52  47  83 CALM      29.80R
SANDBERG       CLEAR     47  35  63 MISG      29.89S
LAS VEGAS NV   CLEAR     63  29  27 N14       29.78R
PHOENIX AZ     PTCLDY    71  26  18 CALM      29.68S
TIJUANA        PTCLDY    59  54  82 CALM      29.85S

$$

OFFSHORE ISLANDS

CITY           SKY/WX    TMP DP  RH WIND       PRES   REMARKS
CATALINA ARPT  CLEAR     55  53  93 SE6       29.82F
SAN NICOLAS IS FOG       56  32  40 NW22      29.81S VSB 1/2

$$

MARINE AND OFFSHORE BUOY REPORTS

STATION/POSITION SKY/WX   TEMP    WIND        PRES    VSBY  SWELL
                          AIR SEA DIR/SP/G                  HT/PER/DIR
                          (F)     (DEG/KT/KT) (MB)    (MI)  (FT/S/D)
TANNER BANKS               64 66  310/ 16/ 17 1010.1          5/320/11
S CLEMENTE BASIN           64 70  300/ 12/ 16 1010.1          3/300/ 7
SAN NICOLAS IS.               62                N/A           3/300/11
SO. S. ROSA ISLA           60 62  310/ 21/ 25 1009.2F         5/310/11
W. S. BARBARA CH           59 62  320/ 17/ 23 1009.4F         3/300/11
M. S. BARBARA CH           61 63  330/  4/  6 1009.9R         3/240/ 5
S. MONICA BASIN               68  330/  8/ 12 1009.0R         3/270/ 6
S PEDRO CHANNEL               64                N/A           2/200/11
CMP PENDLETON NS              68                N/A           2/220/17
OCEANSIDE OFFSHR              68                N/A           2/190/12
TORREY PINES OTR              67                N/A           2/260/11
SAN DIEGO BAY                 72              1010.3F
POINT LOMA SOUTH              71                N/A           2/230/11

$$





USA.gov is the U.S. government's official web portal to all federal, state and local government web resources and services.